This demonstration page uses our WeatherBlox Daily Observations layout. Learn more.

Left ArrowRight Arrow

Hourly Observations for July 29, 2016

Temp ( °F °C ) Dew Point ( °F °C ) Humidity (%) Winds ( mph kmh ) Pressure ( in mb ) Visibility ( mi km ) Precip ( " mm )
12:53 am 00:53 Clear 77 25 72 22 83 83 Calm 29.97 1015 10 16 0.00 0.00
1:53 am 01:53 Clear 76 24.4 71 21.7 85 85 WSW 3 6 29.98 1015 10 16 0.00 0.00
2:53 am 02:53 Clear 75 23.9 71 21.7 88 88 SSW 5 7 29.98 1015 10 16 0.00 0.00
3:53 am 03:53 Clear 75 23.9 70 21.1 84 84 SW 3 6 29.99 1016 10 16 0.00 0.00
4:53 am 04:53 Clear 74 23.3 70 21.1 88 88 SSW 3 6 29.99 1016 10 16 0.00 0.00
5:53 am 05:53 Clear 73 22.8 70 21.1 90 90 Calm 29.99 1016 10 16 0.00 0.00
6:53 am 06:53 Sunny 73 22.8 69 20.6 87 87 SSW 5 7 30.00 1016 9 14 0.00 0.00
7:53 am 07:53 Sunny 74 23.3 70 21.1 88 88 SW 5 7 30.01 1016 10 16 0.00 0.00
8:53 am 08:53 Partly Cloudy 76 24.4 70 21.1 82 82 WSW 5 7 30.01 1016 10 16 0.00 0.00
9:53 am 09:53 Mostly Sunny 80 26.7 71 21.7 74 74 VRB 3 6 30.01 1016 10 16 0.00 0.00
10:53 am 10:53 Mostly Cloudy 83 28.3 69 20.6 63 63 W 6 9 30.01 1016 10 16 0.00 0.00
11:24 am 11:24 Mostly Cloudy 83 28.3 69 20.6 63 63 W 10 17 30.00 1016 10 16 0.00 0.00
11:53 am 11:53 Mostly Cloudy 85 29.4 70 21.1 61 61 NW 6 9 30.00 1016 10 16 0.00 0.00
12:53 pm 12:53 Cloudy 86 30 69 20.6 57 57 NW 6 9 30.00 1016 10 16 0.00 0.00
1:53 pm 13:53 Partly Cloudy 89 31.7 67 19.4 48 48 W 9 15 29.97 1015 10 16 0.00 0.00
2:03 pm 14:03 Partly Cloudy with Nearby Thunderstorms 90 32 66 19 46 46 WSW 9 15 29.94 1014 10 16 0.00 0.00
2:22 pm 14:22 Mostly Cloudy 88 31 66 19 49 49 WNW 18 30 29.94 1014 10 16 0.00 0.00
2:53 pm 14:53 Mostly Cloudy 86 30 69 20.6 57 57 WNW 8 13 29.97 1015 10 16 0.00 0.00
3:53 pm 15:53 Partly Cloudy 90 32.2 68 20 48 48 WSW 10 17 29.95 1014 10 16 0.00 0.03
4:53 pm 16:53 Mostly Cloudy 89 31.7 67 19.4 48 48 W 12 19 29.94 1014 10 16 0.00 0.00
5:53 pm 17:53 Partly Cloudy 90 32.2 66 18.9 45 45 W 14 22 29.93 1014 10 16 0.00 0.00
6:53 pm 18:53 Mostly Sunny 87 30.6 69 20.6 55 55 NNW 9 15 29.95 1014 10 16 0.00 0.00
7:53 pm 19:53 Cloudy 84 28.9 69 20.6 61 61 Calm 29.95 1014 10 16 0.00 0.00
8:53 pm 20:53 Clear 81 27.2 71 21.7 72 72 N 3 6 29.95 1014 10 16 0.00 0.00
9:53 pm 21:53 Mostly Clear 79 26.1 71 21.7 77 77 Calm 29.97 1015 10 16 0.00 0.00
10:53 pm 22:53 Mostly Cloudy 80 26.7 71 21.7 74 74 Calm 29.99 1016 10 16 0.00 0.00
11:53 pm 23:53 Cloudy 77 25 72 22.2 85 85 Calm 29.98 1015 10 16 0.00 0.00

Powered by AerisWeather